NOAA 17 DEB, 48734

Orbit data source: Space-Track

NOAA 17 DEB, 48734 is space debris in SSO originally from a launch on Mon, 24 Jun 2002 UTC launched from the Air Force Western Test Range (AFWTR). Debris objects in space refer to the collection of defunct objects orbiting the Earth. Examples of debris include non-operational satellites, rocket bodies, and fragments generated from explosions, collisions, or faulty payload assembly.

Loading next visibility...
Identifier
48734, 2002-032BT
Orbit
SSO
Country
Flag of USUS
Related business
Manufacturer
Unknown
Mission
Spacecraft
Bus & Motor
Unknown
Mass
Unknown
Launch date (UTC)
2002-06-24 (23 years ago)
Launch vehicle
Unknown
Launch site
Air Force Western Test Range (AFWTR)
Object type
Payload
Rocket body
Debris
Shape & HBR
Unknown shape, 0.1 m
Radar Cross Section
Small (<0.1 m²)

Expand to show TLE details & history
Last TLE update: 1 day ago

TLE from 1 day ago
0 NOAA 17 DEB
1 48734U 02032BT  25348.72232783  .00011691  00000-0  22335-2 0  9994
2 48734  98.7340 340.8364 0007970 306.4892  53.5574 14.64063362248369
Epoch: 2025-12-14T17:20Z
TLE epoch observation values (Epoch: 2025-12-14T17:20:09.124Z)
Latitude
-0.00001°
Longitude
-2.83278°
Altitude
679.718 km
Speed
7.519 km/s
True Right ascension
22h 43m 20s
True Declination
0° 00' 00"
Sunlit
Object was in daylight at epoch
Visualization orbit readout
Latitude
Unknown
Longitude
Unknown
Altitude
Unknown
Speed
Unknown
Apparent Right ascension
Unknown
Apparent Declination
Unknown
Sunlit
N/A
Visualization observer readout
Local Sidereal Time
17:04:18
Azimuth
Unknown
Elevation
Unknown
Doppler factor
Unknown
Orbital elements
Apogee altitude
682.808 km
Perigee altitude
671.562 km
Semi-major axis
7,055.322 km
Eccentricity
0.0008
Inclination
98.734°
RAAN
340.8364°
Arg. of periapsis
306.4892°
True anomaly
53.63091°
Mean anomaly
53.5574°
Eccentric anomaly
53.59415°
Mean motion
3.66242 °/min
Orbital period
98.3 mins
BSTAR
0.0022335
Loading maneuver chart data...
Computing Atmospheric mass density...
Loading historical data...
Loading historical data...
Loading historical data...
Loading historical data...
Loading historical data...
Loading historical data...
Loading historical data...

Documentation

Showing up to 5 results
|